Location: Unspecified
(0.0000°N, 0.0000°E)
Time: 17:54:58
(UTC+00:00)

STARLINK 1014 - Pass Details

Date: 16 January 2020
Orbit: 347 x 353 km, 53.0° (Epoch: 18 January)

Event Time Altitude Azimuth Distance (km) Brightness Sun altitude
Rises 04:58:23 0° 180° (S) 2,142 6.9 -16.6°
Reaches altitude 10° 05:02:01 10° 132° (SE) 1,298 6.7 -15.7°
Maximum altitude 05:02:23 10° 125° (SE) 1,288 6.8 -15.6°
Drops below altitude 10° 05:02:45 10° 117° (ESE) 1,297 6.9 -15.5°
Sets 05:06:22 0° 70° (ENE) 2,135 7.4 -14.7°
